St. Joseph, KS

4:00 PM CDT on September 16, 2019 (GMT -0500)
Rosecrans Memorial

Weather History for KSTJ - July, 2019

Change the Weather History Date:

Saturday, July 20, 2019

  Actual Average Record
Temperature  
Mean Temperature 86 °F 77 °F  
Max Temperature 96 °F 87 °F 108 °F (1934)
Min Temperature 75 °F 67 °F 50 °F (1971)
Degree Days  
Heating Degree Days 0 0  
Month to date heating degree days 0 0  
Since 1 June heating degree days 1 8  
Since 1 July heating degree days 0 0  
Cooling Degree Days 21 12  
Month to date cooling degree days 325 238  
Year to date cooling degree days 719 618  
Since 1 June cooling degree days 618 505  
Growing Degree Days 36 (Base 50)    
Moisture  
Dew Point 74 °F    
Average Humidity 66    
Maximum Humidity 79    
Minimum Humidity 53    
Precipitation  
Precipitation T in 0.17 in 3.04 in (1960)
Month to date precipitation 0.22 3.23  
Year to date precipitation 21.49 20.36  
Sea Level Pressure  
Sea Level Pressure 29.79 in    
Wind  
Wind Speed 12 mph (South)    
Max Wind Speed 24 mph    
Max Gust Speed 34 mph    
Visibility 7 miles    
Events Rain , Thunderstorm    
T = Trace of Precipitation, MM = Missing Value Source: NWS Daily Summary

Daily Weather History Graph

Daily Weather History Graph

Search for Another Location

Airport or City:

Astronomy

Jul. 20, 2019 Rise Set
Actual Time 6:07 AM CDT 8:43 PM CDT
Civil Twilight 5:36 AM CDT 9:14 PM CDT
Nautical Twilight 4:57 AM CDT 9:53 PM CDT
Astronomical Twilight 4:13 AM CDT 10:37 PM CDT
Moon 11:11 PM CDT (7/20) 9:32 AM CDT (7/20)
Length of Visible Light 15h 38m
Length of Day
14h 35m
Waning Gibbous, 87% of the Moon is Illuminated
Jul 20
Waning Gibbous
Jul 24
Last Quarter
Jul 31
New
Aug 7
First Quarter
Aug 15
Full

Hourly Weather History & Observations

Time (CDT) Temp. Heat Index Dew Point Humidity Pressure Visibility Wind Dir Wind Speed Gust Speed Precip Events Conditions
12:53 AM 84.9 °F 92.1 °F 73.9 °F 69% 29.79 in 9.0 mi South 10.4 mph - N/A   Clear
1:53 AM 84.0 °F 91.2 °F 73.9 °F 72% 29.79 in 9.0 mi South 11.5 mph - N/A   Clear
2:53 AM 82.9 °F 88.8 °F 73.0 °F 72% 29.79 in 9.0 mi South 12.7 mph - N/A   Clear
3:53 AM 82.0 °F 86.7 °F 72.0 °F 71% 29.78 in 9.0 mi South 12.7 mph - N/A   Clear
4:53 AM 81.0 °F 85.2 °F 72.0 °F 74% 29.79 in 9.0 mi South 11.5 mph - N/A   Clear
5:53 AM 78.1 °F - 71.1 °F 79% 29.80 in 9.0 mi South 10.4 mph - N/A   Clear
6:53 AM 80.1 °F 83.6 °F 71.1 °F 74% 29.80 in 7.0 mi South 10.4 mph - N/A   Clear
7:53 AM 81.0 °F 85.2 °F 72.0 °F 74% 29.80 in 7.0 mi South 13.8 mph - N/A   Clear
8:53 AM 82.9 °F 88.0 °F 72.0 °F 69% 29.79 in 6.0 mi SSW 13.8 mph - N/A   Haze
9:53 AM 84.9 °F 90.7 °F 72.0 °F 65% 29.79 in 6.0 mi South 16.1 mph 24.2 mph N/A   Haze
10:53 AM 88.0 °F 96.5 °F 73.9 °F 63% 29.78 in 6.0 mi South 16.1 mph - N/A   Haze
11:20 AM 88.0 °F 96.5 °F 73.9 °F 63% 29.81 in 1.0 mi SSW 16.1 mph - N/A   Haze
11:22 AM 88.0 °F 95.6 °F 73.0 °F 61% 29.81 in 0.8 mi SSW 12.7 mph - N/A   Haze
11:29 AM 89.1 °F 98.0 °F 73.9 °F 61% 29.81 in 0.2 mi SSW 15.0 mph 21.9 mph N/A   Haze
11:53 AM 90.0 °F 99.0 °F 73.9 °F 59% 29.78 in 0.2 mi SSW 15.0 mph - N/A   Haze
12:09 PM 90.0 °F 99.0 °F 73.9 °F 59% 29.81 in 1.0 mi South 13.8 mph - N/A   Haze
12:21 PM 91.0 °F 100.4 °F 73.9 °F 57% 29.80 in 4.0 mi South 16.1 mph - N/A   Haze
12:53 PM 91.0 °F 101.6 °F 75.0 °F 59% 29.77 in 10.0 mi South 16.1 mph - N/A   Clear
1:53 PM 93.0 °F 104.6 °F 75.0 °F 56% 29.78 in 10.0 mi SSW 9.2 mph - N/A   Clear
2:53 PM 93.9 °F 105.4 °F 75.0 °F 54% 29.77 in 9.0 mi South 6.9 mph - N/A   Clear
3:53 PM 95.0 °F 106.7 °F 75.0 °F 52% 29.76 in 7.0 mi SSW 11.5 mph - N/A   Clear
4:53 PM 95.0 °F 108.2 °F 75.9 °F 54% 29.76 in 7.0 mi SSW 11.5 mph - N/A   Clear
5:53 PM 95.0 °F 108.2 °F 75.9 °F 54% 29.75 in 8.0 mi South 11.5 mph - N/A   Clear
6:53 PM 93.9 °F 106.9 °F 75.9 °F 56% 29.74 in 9.0 mi South 9.2 mph - N/A   Clear
7:53 PM 91.0 °F 106.2 °F 78.1 °F 66% 29.75 in 7.0 mi SW 3.5 mph - N/A   Clear
8:45 PM 89.1 °F 103.2 °F 78.1 °F 70% 29.79 in 6.0 mi SSE 3.5 mph - N/A   Haze
8:53 PM 89.1 °F 103.2 °F 78.1 °F 70% 29.76 in 7.0 mi SSE 3.5 mph - N/A   Mostly Cloudy
9:08 PM 88.0 °F 103.1 °F 79.0 °F 75% 29.79 in 8.0 mi Calm Calm - N/A   Scattered Clouds
9:53 PM 86.0 °F 99.3 °F 79.0 °F 79% 29.78 in 9.0 mi SSE 5.8 mph - N/A   Overcast
10:53 PM 86.0 °F 93.8 °F 73.9 °F 67% 29.81 in 9.0 mi ENE 19.6 mph 26.5 mph N/A   Overcast
11:04 PM 82.0 °F 86.7 °F 72.0 °F 71% 29.83 in 10.0 mi ENE 13.8 mph 28.8 mph N/A Thunderstorm Overcast
11:28 PM 81.0 °F 85.2 °F 72.0 °F 74% 29.86 in 10.0 mi East 16.1 mph 28.8 mph N/A Thunderstorm Thunderstorm
11:53 PM 80.1 °F 83.8 °F 72.0 °F 76% 29.88 in 10.0 mi NE 12.7 mph 21.9 mph 0.00 in Rain , Thunderstorm Light Thunderstorms and Rain